TimeCDT,TemperatureF,Dew PointF,Humidity,Sea Level PressureIn,VisibilityMPH,Wind Direction,Wind SpeedMPH,Gust SpeedMPH,PrecipitationIn,Events,Conditions,WindDirDegrees,DateUTC
12:53 AM,35.6,33.8,93,30.03,10.0,Calm,Calm,-,N/A,,Overcast,0,2011-10-27 05:53:00
1:53 AM,35.1,33.1,92,30.07,10.0,Calm,Calm,-,N/A,,Overcast,0,2011-10-27 06:53:00
2:53 AM,35.6,33.8,93,30.02,10.0,Calm,Calm,-,N/A,,Overcast,0,2011-10-27 07:53:00
3:53 AM,36.0,33.1,89,30.06,10.0,Calm,Calm,-,N/A,,Overcast,0,2011-10-27 08:53:00
4:53 AM,35.1,33.1,92,30.06,9.0,Calm,Calm,-,N/A,,Mostly Cloudy,0,2011-10-27 09:53:00
5:53 AM,32.0,30.9,96,30.07,6.0,Calm,Calm,-,N/A,,Clear,0,2011-10-27 10:53:00
6:04 AM,32.0,30.2,93,30.02,2.0,Calm,Calm,-,N/A,,Clear,0,2011-10-27 11:04:00
6:15 AM,32.0,30.2,93,30.02,3.0,Calm,Calm,-,N/A,,Clear,0,2011-10-27 11:15:00
6:50 AM,30.2,30.2,100,30.02,1.8,Calm,Calm,-,N/A,,Mostly Cloudy,0,2011-10-27 11:50:00
6:53 AM,30.0,28.9,96,30.08,1.5,Calm,Calm,-,N/A,,Mostly Cloudy,0,2011-10-27 11:53:00
7:04 AM,30.2,30.2,100,30.02,10.0,Calm,Calm,-,N/A,,Mostly Cloudy,0,2011-10-27 12:04:00
7:53 AM,30.0,28.0,92,30.09,10.0,WNW,4.6,-,N/A,,Clear,300,2011-10-27 12:53:00
8:53 AM,34.0,30.9,89,30.10,6.0,WNW,4.6,-,N/A,,Clear,300,2011-10-27 13:53:00
9:53 AM,39.0,34.0,82,30.09,10.0,NNW,3.5,-,N/A,,Partly Cloudy,340,2011-10-27 14:53:00
10:53 AM,42.1,34.0,73,30.10,10.0,NNW,5.8,-,N/A,,Clear,330,2011-10-27 15:53:00
11:53 AM,46.0,33.1,61,30.11,10.0,WNW,10.4,-,N/A,,Clear,300,2011-10-27 16:53:00
12:53 PM,48.2,32.0,54,30.05,10.0,WNW,8.1,-,N/A,,Scattered Clouds,300,2011-10-27 17:53:00
1:53 PM,46.9,28.9,50,30.09,10.0,NW,8.1,-,N/A,,Partly Cloudy,310,2011-10-27 18:53:00
2:53 PM,48.9,28.9,46,30.08,10.0,NW,8.1,-,N/A,,Overcast,310,2011-10-27 19:53:00
3:53 PM,48.0,28.0,46,30.08,10.0,West,8.1,-,N/A,,Mostly Cloudy,260,2011-10-27 20:53:00
4:53 PM,48.0,27.0,44,30.08,10.0,WSW,9.2,-,N/A,,Partly Cloudy,250,2011-10-27 21:53:00
5:53 PM,44.1,27.0,51,30.10,10.0,West,3.5,-,N/A,,Clear,260,2011-10-27 22:53:00
6:53 PM,39.0,28.9,67,30.12,10.0,Calm,Calm,-,N/A,,Clear,0,2011-10-27 23:53:00
7:53 PM,33.1,28.0,82,30.13,10.0,Calm,Calm,-,N/A,,Clear,0,2011-10-28 00:53:00
8:53 PM,32.0,27.0,82,30.12,10.0,Calm,Calm,-,N/A,,Clear,0,2011-10-28 01:53:00
9:53 PM,30.0,26.1,85,30.12,10.0,Calm,Calm,-,N/A,,Clear,0,2011-10-28 02:53:00
10:53 PM,28.4,26.6,93,30.06,10.0,Calm,Calm,-,N/A,,Clear,0,2011-10-28 03:53:00
11:53 PM,28.0,25.0,88,30.10,10.0,Calm,Calm,-,N/A,,Clear,0,2011-10-28 04:53:00